Temp
13 13 14 14 14 13 13 13 12 12 12 11 11 11 10 9 10 10 10 9 10 9
14 13 13 14 14 13 13 14 13 12 12 11 11 10 9 9 9 9 9 9 9 9
12 12 12 13 13 13 12 13 13 12 11 11 10 10 9 9 9 9 9 10 9 9
11 11 12 12 12 13 12 13 12 13 11 10 10 10 9 9 9 9 9 9 9 9
10 12 13 11 12 12 12 12 12 12 12 10 9 9 9 9 10 9 9 9 8 8
10 10 11 11 12 12 12 12 12 12 10 9 9 9 9 9 9 9 9 9 8 8
9 10 10 10 11 11 12 11 11 11 10 9 9 8 9 9 9 9 9 9 9 8
8 9 9 9 10 10 11 10 11 11 9 9 9 8 8 8 8 9 9 8 8 8
8 9 9 9 9 10 10 11 11 10 9 9 9 9 8 8 8 8 8 8 8 8
8 9 9 9 9 10 10 11 10 9 8 9 8 8 8 8 8 8 7 8 7 7
7 9 9 9 9 9 10 9 9 9 8 8 8 8 8 8 7 7 7 7 7 7
5 8 8 9 9 9 9 9 9 8 8 7 7 7 7 7 7 6 7 7 7 7
2 7 8 9 9 8 8 8 8 8 8 8 7 7 7 7 7 7 7 7 7 7
2 4 7 8 8 8 8 8 8 8 8 8 8 7 7 7 7 7 7 6 6 6
Height
1431 1430 1430 1432 1434 1435 1436 1439 1442 1445 1448 1452 1456 1459 1462 1465 1467 1470 1471 1473 1476 1478
1422 1424 1423 1425 1428 1430 1430 1432 1435 1438 1442 1446 1450 1454 1456 1459 1461 1464 1467 1469 1472 1473
1411 1413 1415 1418 1420 1422 1423 1425 1428 1432 1436 1439 1443 1448 1451 1453 1456 1459 1461 1464 1467 1470
1403 1402 1405 1409 1413 1415 1417 1419 1422 1426 1430 1433 1436 1441 1446 1447 1451 1453 1456 1459 1462 1466
1396 1395 1398 1401 1405 1408 1411 1413 1416 1420 1424 1428 1431 1436 1439 1442 1445 1448 1451 1453 1456 1460
1390 1390 1392 1395 1398 1401 1403 1406 1411 1415 1419 1423 1425 1430 1434 1438 1441 1443 1446 1449 1452 1455
1385 1386 1388 1390 1391 1395 1397 1402 1405 1410 1415 1419 1421 1425 1429 1432 1436 1439 1442 1445 1448 1451
1378 1379 1382 1383 1386 1389 1391 1394 1400 1405 1411 1415 1418 1421 1424 1428 1432 1435 1438 1441 1443 1447
1371 1373 1375 1378 1380 1383 1384 1388 1395 1401 1406 1411 1414 1417 1420 1424 1427 1430 1433 1437 1440 1443
1366 1368 1370 1371 1375 1378 1380 1384 1391 1398 1403 1407 1411 1415 1418 1421 1424 1426 1429 1433 1436 1439
1361 1361 1363 1366 1369 1373 1373 1382 1389 1396 1400 1405 1409 1413 1416 1418 1422 1424 1428 1431 1433 1436
1358 1358 1359 1360 1363 1368 1373 1378 1387 1392 1397 1402 1406 1410 1414 1416 1419 1421 1425 1428 1431 1434
1357 1354 1354 1358 1361 1365 1369 1374 1383 1388 1395 1400 1403 1407 1411 1414 1417 1418 1422 1425 1429 1432
1358 1352 1351 1353 1358 1363 1367 1373 1378 1384 1390 1395 1399 1404 1408 1411 1414 1416 1419 1423 1426 1429
Wind_Speed
19 22 32 31 30 30 30 30 34 43 41 36 35 31 28 28 29 27 28 25 29 28
31 25 32 34 31 31 31 33 30 34 38 36 35 32 29 30 29 27 28 23 30 30
29 31 28 36 35 30 37 33 33 29 33 36 34 33 29 32 29 26 28 26 26 32
29 30 33 35 35 31 33 31 34 32 28 32 32 31 31 28 28 29 26 25 25 27
22 21 29 32 29 33 33 35 32 27 25 27 32 32 33 29 30 27 26 26 25 27
20 22 28 24 25 34 33 37 31 27 26 26 27 31 31 27 27 26 24 25 24 26
22 23 22 24 28 34 35 35 28 26 24 25 26 28 28 29 25 23 20 23 25 27
20 23 23 24 29 31 38 32 29 25 25 24 21 25 28 27 24 22 21 20 23 23
19 22 23 24 30 35 36 30 26 26 25 23 21 22 23 23 23 20 18 20 23 25
19 23 24 24 30 36 34 27 29 27 24 21 18 18 21 22 21 20 19 17 17 18
15 21 21 24 28 37 28 32 27 26 23 20 18 17 18 18 17 16 14 15 14 15
11 20 21 31 36 34 34 30 30 26 26 24 21 18 18 17 17 15 15 15 14 12
15 13 22 30 31 34 34 33 31 31 28 26 24 20 20 18 18 17 16 16 14 14
12 5 18 31 33 33 35 34 34 35 33 30 24 21 21 20 19 17 17 17 16 15
Wind_Direction
268 262 257 253 256 261 254 238 237 232 235 232 233 236 228 230 231 231 235 223 227 233
261 258 256 255 255 255 253 244 240 236 232 232 232 235 226 227 225 225 230 233 233 228
264 254 245 249 252 250 241 249 233 233 234 232 234 232 229 223 225 225 229 231 234 232
267 261 242 242 247 247 238 241 221 232 231 226 232 225 227 225 225 226 229 229 231 233
283 258 254 240 246 239 230 226 225 233 231 229 222 225 224 224 222 221 223 227 227 228
259 250 237 235 261 230 227 220 215 225 235 227 224 223 224 221 224 221 227 225 229 225
258 249 262 253 250 223 219 210 211 229 229 222 224 219 216 218 222 224 228 228 228 226
263 245 257 244 236 224 209 201 219 222 213 216 219 217 217 219 219 220 222 227 232 237
261 239 248 239 223 213 201 199 211 203 205 209 214 213 205 207 212 212 217 224 233 240
251 244 244 230 219 207 195 197 197 203 203 206 201 195 196 203 208 206 214 215 218 221
244 226 238 235 219 202 196 191 195 199 193 187 184 179 180 183 184 182 190 201 200 202
280 219 220 209 199 192 183 180 189 187 185 187 182 176 178 173 166 164 171 178 176 178
304 215 200 199 194 188 180 181 188 183 188 186 187 181 178 176 179 174 179 183 185 185
333 250 183 179 190 187 187 181 177 180 180 183 185 186 182 184 188 190 187 191 198 200